Weather History for Cotulla, TX

Change the Weather History Date:

Tuesday, January 15, 2013

  Actual Average Record
Temperature  
Mean Temperature 47 °F -  
Max Temperature 53 °F 65 °F 78 °F (2000)
Min Temperature 41 °F 44 °F 30 °F (1999)
Degree Days  
Heating Degree Days 18    
Moisture  
Dew Point 34 °F    
Average Humidity 66    
Maximum Humidity 82    
Minimum Humidity 47    
Precipitation  
Precipitation 0.00 in - - ()
Sea Level Pressure  
Sea Level Pressure 30.14 in    
Wind  
Wind Speed 8 mph (NNE)    
Max Wind Speed 15 mph    
Max Gust Speed 23 mph    
Visibility 10 miles    
Events      
Averages and records for this station are not official NWS values.
T = Trace of Precipitation, MM = Missing Value Source: NWS Daily Summary

Daily Weather History Graph

Daily Weather History Graph

Search for Another Location

Airport:

Trip Planner

Search our weather history database for the weather conditions in past years. The results will help you decide how hot, cold, wet, or windy it might be!

Date:

Astronomy

Jan. 15, 2013 Rise Set
Actual Time 7:30 AM CST 6:02 PM CST
Civil Twilight 7:04 AM CST 6:28 PM CST
Nautical Twilight 6:36 AM CST 6:57 PM CST
Astronomical Twilight 6:07 AM CST 7:25 PM CST
Moon 10:02 AM CST (1/15) 10:25 PM CST (1/15)
Length of Visible Light 11h 23m
Length of Day
10h 32m
Waxing Crescent, 19% of the Moon is Illuminated
Jan 15
Waxing Crescent
Jan 18
First Quarter
Jan 26
Full
Feb 3
Last Quarter
Feb 10
New

Hourly Weather History & Observations

Time (CST) Temp. Windchill Dew Point Humidity Pressure Visibility Wind Dir Wind Speed Gust Speed Precip Events Conditions
12:53 AM 44.1 °F 41.5 °F 37.0 °F 76% 30.10 in 10.0 mi North 4.6 mph - N/A   Partly Cloudy
1:53 AM 44.6 °F 43.1 °F 35.6 °F 71% 30.10 in 10.0 mi NNE 3.5 mph - N/A   Overcast
2:53 AM 45.0 °F 40.6 °F 36.0 °F 71% 30.09 in 10.0 mi NE 8.1 mph - N/A   Overcast
3:53 AM 44.1 °F 39.5 °F 37.0 °F 76% 30.08 in 10.0 mi NNE 8.1 mph - N/A   Overcast
4:53 AM 42.8 °F 37.0 °F 37.4 °F 81% 30.09 in 10.0 mi NNE 10.4 mph - N/A   Overcast
5:53 AM 43.0 °F 37.2 °F 37.9 °F 82% 30.09 in 9.0 mi NNE 10.4 mph - N/A   Overcast
6:53 AM 42.1 °F 36.1 °F 36.0 °F 79% 30.10 in 10.0 mi NE 10.4 mph - N/A   Overcast
7:53 AM 42.1 °F 36.1 °F 35.1 °F 76% 30.13 in 10.0 mi NNE 10.4 mph - N/A   Overcast
8:53 AM 43.0 °F 37.2 °F 35.1 °F 74% 30.13 in 10.0 mi NNE 10.4 mph - N/A   Overcast
9:53 AM 44.1 °F 39.5 °F 36.0 °F 73% 30.15 in 10.0 mi NNE 8.1 mph - N/A   Overcast
10:53 AM 45.0 °F 41.2 °F 36.0 °F 71% 30.15 in 10.0 mi North 6.9 mph - N/A   Overcast
11:53 AM 46.9 °F - 35.1 °F 63% 30.14 in 10.0 mi NNW 10.4 mph - N/A   Overcast
12:53 PM 48.9 °F - 34.0 °F 56% 30.11 in 10.0 mi NW 10.4 mph - N/A   Partly Cloudy
1:53 PM 52.0 °F - 34.0 °F 50% 30.08 in 10.0 mi North 13.8 mph - N/A   Clear
2:53 PM 53.1 °F - 33.1 °F 47% 30.09 in 10.0 mi North 11.5 mph - N/A   Unknown
3:53 PM 53.1 °F - 33.1 °F 47% 30.10 in 10.0 mi North 8.1 mph 20.7 mph N/A   Mostly Cloudy
4:53 PM 52.0 °F - 33.1 °F 49% 30.12 in 10.0 mi NNE 15.0 mph 19.6 mph N/A   Scattered Clouds
5:53 PM 48.0 °F - 32.0 °F 54% 30.14 in 10.0 mi NNE 13.8 mph 23.0 mph N/A   Clear
6:53 PM 45.0 °F 38.9 °F 32.0 °F 60% 30.18 in 10.0 mi NNE 12.7 mph - N/A   Clear
7:53 PM 44.1 °F 40.1 °F 32.0 °F 63% 30.21 in 10.0 mi North 6.9 mph - N/A   Partly Cloudy
8:53 PM 43.0 °F 38.2 °F 32.0 °F 65% 30.24 in - North 8.1 mph - N/A   Unknown
9:53 PM 41.0 °F 38.0 °F 32.0 °F 70% 30.26 in 10.0 mi North 4.6 mph - N/A   Clear
10:53 PM 41.0 °F 35.8 °F 30.0 °F 65% 30.27 in 10.0 mi NNW 8.1 mph - N/A   Clear